Date,TemperatureHighF,TemperatureAvgF,TemperatureLowF,DewpointHighF,DewpointAvgF,DewpointLowF,HumidityHigh,HumidityAvg,HumidityLow,PressureMaxIn,PressureMinIn,WindSpeedMaxMPH,WindSpeedAvgMPH,GustSpeedMaxMPH,PrecipitationSumIn
2013-12-1,31.8,30.6,29.1,29.7,28.4,26.8,93,92,88,29.99,29.89,11,4,11,0.00
2013-12-2,41.4,31.4,27.0,30.9,26.2,22.1,88,81,64,29.90,29.56,14,3,14,0.00
2013-12-3,56.7,40.3,26.4,29.6,25.0,20.6,83,58,27,29.56,29.26,21,5,21,0.00
2013-12-4,44.8,32.4,19.0,31.0,23.1,9.1,93,70,45,29.56,29.25,26,8,26,0.00
2013-12-5,36.3,22.8,16.7,19.7,13.8,8.6,82,69,48,29.58,29.48,14,4,14,0.02
2013-12-6,36.1,22.7,17.8,16.9,9.6,-2.2,81,59,26,29.71,29.57,10,2,10,0.00
2013-12-7,37.8,28.4,17.6,23.3,11.7,3.4,79,50,30,29.68,29.40,28,7,28,0.00
2013-12-8,29.1,22.1,11.7,23.7,5.6,-7.0,84,51,24,29.64,29.39,27,9,27,0.00
2013-12-9,24.3,12.4,1.8,14.2,-5.6,-12.9,83,44,28,30.01,29.64,21,6,21,0.00
2013-12-10,36.9,13.6,-1.7,2.4,-4.3,-11.8,66,46,23,30.02,29.87,12,2,12,0.00
2013-12-11,40.6,19.9,3.6,13.2,3.3,-5.7,66,50,25,30.06,29.90,8,2,8,0.00
2013-12-12,52.5,26.3,10.6,19.0,11.0,2.5,72,55,24,30.06,29.75,11,2,11,0.00
2013-12-13,39.4,29.3,20.5,22.7,16.4,12.2,76,59,44,29.75,29.64,25,7,25,0.00
2013-12-14,40.5,26.4,15.1,19.7,13.6,7.7,73,59,40,30.01,29.75,12,3,13,0.00
2013-12-15,44.8,26.3,13.8,21.1,14.0,6.7,76,60,36,30.03,29.96,11,2,11,0.00
2013-12-16,45.0,28.3,16.0,22.8,16.2,9.4,77,61,39,30.03,29.95,11,2,11,0.00
2013-12-17,48.6,30.1,16.5,24.9,18.5,10.2,80,63,37,30.07,29.93,7,2,7,0.00
2013-12-18,48.4,32.8,19.9,26.9,20.9,14.2,79,63,41,29.93,29.57,8,2,8,0.00
2013-12-19,54.5,40.9,30.7,26.9,22.6,19.3,70,49,27,29.57,29.39,23,5,23,0.00
2013-12-20,53.1,37.7,30.2,31.7,27.3,22.6,92,67,43,29.48,29.37,14,3,14,0.00
2013-12-21,37.4,29.6,23.9,28.9,22.4,16.4,93,75,56,29.50,29.31,29,8,29,0.00
2013-12-22,43.5,29.9,21.0,17.5,13.7,8.6,68,51,30,29.88,29.50,20,5,20,0.00
2013-12-23,47.1,28.7,16.2,20.5,14.6,7.7,75,56,34,30.03,29.87,10,2,10,0.00
2013-12-24,46.8,30.9,17.2,23.7,17.0,9.8,77,57,40,30.00,29.83,19,4,19,0.00
2013-12-25,46.0,29.3,15.4,20.1,13.4,8.4,76,53,28,30.02,29.91,11,2,11,0.00
2013-12-26,43.7,28.2,14.4,19.0,11.7,6.5,73,52,28,30.00,29.90,9,2,9,0.00
2013-12-27,52.0,31.4,18.0,20.6,14.3,7.7,72,51,23,30.00,29.85,9,2,9,0.00
2013-12-28,46.8,30.7,17.1,21.2,16.1,9.7,77,56,32,29.85,29.61,11,3,13,0.00
2013-12-29,45.5,30.4,20.7,22.2,15.7,9.7,75,55,34,29.83,29.62,16,4,16,0.00
2013-12-30,45.9,28.0,14.9,15.3,9.9,6.4,72,49,25,29.94,29.81,11,2,11,0.00
2013-12-31,48.4,31.8,17.8,19.3,13.2,5.9,69,48,25,29.93,29.78,14,3,14,0.00